SCP
0 0 0 0 0 0 0 0 0 0 0 0 0 0 0 0 0 0 0 0 0 0
0 0 0 0 0 0 0 0 0 0 0 0 0 0 0 0 0 0 0 0 0 0
0 0 0 0 0 0 0 0 0 0 0 0 0 0 0 0 0 0 0 0 0 0
0 0 0 0 0 0 0 0 0 0 0 0 0 0 0 0 0 0 0 0 0 0
0 0 0 0 0 0 0 0 0 0 0 0 0 0 0 0 0 0 0 0 0 0
0 0 0 0 0 0 0 0 0 0 0 0 0 0 0 0 0 0 0 0 0 0
0 0 0 0 0 0 0 0 0 0 0 0 0 0 0 0 0 0 0 0 0 0
0 0 0 0 0 0 0 0 0 0 0 0 0 0 0 0 0 0 0 0 0 0
0 0 0 0 0 0 0 0 0 0 0 0 0 0 0 0 0 0 0 0 0 0
0 0 0 0 0 0 0 0 0 0 0 0 0 0 0 0 0 0 0 0 0 0
0 0 0 0 0 0 0 0 0 0 0 0 0 0 0 0 0 0 0 0 0 0
0 0 0 0 0 0 0 0 0 0 0 0 0 0 0 0 0 0 0 0 0 0
0 0 0 0 0 0 0 0 0 0 0 0 0 0 0 0 0 0 0 0 0 0
0 0 0 0 0 0 0 0 0 0 0 0 0 0 0 0 0 0 0 0 0 0
Wind_Speed_500mb
83 82 79 73 70 71 73 69 59 54 54 52 52 52 50 49 44 38 35 30 29 29
72 76 73 69 64 65 61 57 54 50 46 48 53 53 49 42 39 36 31 30 29 30
57 61 61 61 62 60 58 56 51 43 45 49 49 46 42 40 36 33 30 28 28 27
48 52 58 59 60 58 56 50 46 46 47 47 45 43 41 37 34 31 29 26 24 21
34 36 38 40 42 44 44 46 46 46 45 44 43 42 40 36 33 30 27 24 23 19
21 24 28 30 34 38 42 43 44 45 45 47 46 43 40 37 33 31 29 26 24 22
32 33 32 33 36 38 41 44 45 46 49 51 48 45 42 39 37 34 32 30 29 29
40 40 41 40 40 43 47 48 49 51 54 54 51 48 47 46 43 41 39 38 38 38
41 45 48 48 49 50 53 54 55 57 58 57 56 54 55 51 47 46 45 44 45 47
50 52 52 54 56 56 58 59 59 61 61 59 57 57 56 55 50 50 48 49 50 52
58 62 61 61 62 61 61 62 61 61 61 60 58 58 58 57 55 55 53 53 55 58
55 56 57 57 57 60 64 64 63 61 59 58 57 58 59 58 57 56 56 56 58 61
48 49 51 52 52 53 56 58 59 58 57 55 53 53 52 53 54 57 60 60 63 75
39 38 38 40 41 41 44 47 49 49 47 46 47 48 51 53 54 56 58 69 78 75
Wind_Direction_500mb
247 247 248 247 244 244 246 250 250 243 239 237 238 239 241 245 247 251 260 268 270 274
245 245 245 244 243 245 247 247 243 239 236 231 231 234 237 237 241 247 255 261 270 275
251 246 244 242 242 242 243 243 242 239 230 228 227 227 229 233 238 243 249 256 262 269
242 238 238 241 241 240 238 237 232 228 224 221 221 223 228 231 233 238 243 248 255 266
240 236 233 231 229 229 229 228 226 222 218 220 224 226 227 229 231 233 237 243 254 266
243 234 232 235 237 236 232 228 223 221 222 225 225 226 227 227 231 235 240 248 258 272
259 250 246 245 243 238 235 231 230 229 228 227 228 229 230 233 235 240 246 253 263 277
263 258 254 252 249 244 242 239 237 235 233 232 234 236 236 237 239 243 248 255 266 275
273 263 258 257 255 250 247 245 244 240 238 238 238 239 241 241 243 247 252 258 265 273
273 266 261 259 258 254 250 248 245 241 240 241 242 244 246 248 249 254 259 265 269 275
264 263 258 255 253 252 249 248 246 244 242 242 242 244 247 252 255 259 264 270 277 283
261 260 261 260 256 250 247 246 244 243 243 242 244 247 249 253 259 266 272 277 282 286
264 261 260 259 257 253 246 244 241 240 240 242 245 250 256 261 267 272 276 281 287 291
268 267 265 261 257 252 245 241 239 240 242 246 251 256 261 265 268 272 277 284 286 284
Wind_Speed_850mb
83 82 79 73 70 71 73 69 59 54 54 52 52 52 50 49 44 38 35 30 29 29
72 76 73 69 64 65 61 57 54 50 46 48 53 53 49 42 39 36 31 30 29 30
57 61 61 61 62 60 58 56 51 43 45 49 49 46 42 40 36 33 30 28 28 27
48 52 58 59 60 58 56 50 46 46 47 47 45 43 41 37 34 31 29 26 24 21
34 36 38 40 42 44 44 46 46 46 45 44 43 42 40 36 33 30 27 24 23 19
21 24 28 30 34 38 42 43 44 45 45 47 46 43 40 37 33 31 29 26 24 22
32 33 32 33 36 38 41 44 45 46 49 51 48 45 42 39 37 34 32 30 29 29
40 40 41 40 40 43 47 48 49 51 54 54 51 48 47 46 43 41 39 38 38 38
41 45 48 48 49 50 53 54 55 57 58 57 56 54 55 51 47 46 45 44 45 47
50 52 52 54 56 56 58 59 59 61 61 59 57 57 56 55 50 50 48 49 50 52
58 62 61 61 62 61 61 62 61 61 61 60 58 58 58 57 55 55 53 53 55 58
55 56 57 57 57 60 64 64 63 61 59 58 57 58 59 58 57 56 56 56 58 61
48 49 51 52 52 53 56 58 59 58 57 55 53 53 52 53 54 57 60 60 63 75
39 38 38 40 41 41 44 47 49 49 47 46 47 48 51 53 54 56 58 69 78 75
Wind_Direction_850mb
247 247 248 247 244 244 246 250 250 243 239 237 238 239 241 245 247 251 260 268 270 274
245 245 245 244 243 245 247 247 243 239 236 231 231 234 237 237 241 247 255 261 270 275
251 246 244 242 242 242 243 243 242 239 230 228 227 227 229 233 238 243 249 256 262 269
242 238 238 241 241 240 238 237 232 228 224 221 221 223 228 231 233 238 243 248 255 266
240 236 233 231 229 229 229 228 226 222 218 220 224 226 227 229 231 233 237 243 254 266
243 234 232 235 237 236 232 228 223 221 222 225 225 226 227 227 231 235 240 248 258 272
259 250 246 245 243 238 235 231 230 229 228 227 228 229 230 233 235 240 246 253 263 277
263 258 254 252 249 244 242 239 237 235 233 232 234 236 236 237 239 243 248 255 266 275
273 263 258 257 255 250 247 245 244 240 238 238 238 239 241 241 243 247 252 258 265 273
273 266 261 259 258 254 250 248 245 241 240 241 242 244 246 248 249 254 259 265 269 275
264 263 258 255 253 252 249 248 246 244 242 242 242 244 247 252 255 259 264 270 277 283
261 260 261 260 256 250 247 246 244 243 243 242 244 247 249 253 259 266 272 277 282 286
264 261 260 259 257 253 246 244 241 240 240 242 245 250 256 261 267 272 276 281 287 291
268 267 265 261 257 252 245 241 239 240 242 246 251 256 261 265 268 272 277 284 286 284